This is the latest recevied weather packets stored in our database for station/object K9TLD. If no packets are shown the sender has not sent any weather packets the latest 10 day(s).
| Time | Temp. | Humidity | Pressure | Rain* | Wind** | Luminosity | Snow |
|---|---|---|---|---|---|---|---|
| 1778201053 | 6.11° C | 64% | 1012.6 hPa | 0 mm | - | 7 W/m² | - |
| 1778200750 | 6.11° C | 64% | 1012.6 hPa | 0 mm | - | 9 W/m² | - |
| 1778200447 | 6.11° C | 64% | 1012.4 hPa | 0 mm | - | 11 W/m² | - |
| 1778200144 | 6.11° C | 64% | 1012.4 hPa | 0 mm | - | 13 W/m² | - |
| 1778199840 | 6.11° C | 63% | 1012.7 hPa | 0 mm | - | 16 W/m² | - |
| 1778199537 | 6.11° C | 63% | 1012.6 hPa | 0 mm | - | 18 W/m² | - |
| 1778199233 | 6.67° C | 64% | 1012.5 hPa | 0 mm | - | 20 W/m² | - |
| 1778198929 | 6.67° C | 63% | 1012.4 hPa | 0 mm | - | 23 W/m² | - |
| 1778198626 | 6.67° C | 64% | 1012.4 hPa | 0 mm | - | 25 W/m² | - |
| 1778198322 | 7.22° C | 64% | 1012.4 hPa | 0 mm | - | 30 W/m² | - |
| 1778198020 | 7.22° C | 65% | 1012.4 hPa | 0 mm | - | 35 W/m² | - |
| 1778197717 | 7.22° C | 65% | 1012.5 hPa | 0 mm | - | 49 W/m² | - |
| 1778197413 | 7.22° C | 67% | 1012.3 hPa | 0 mm | - | 40 W/m² | - |
| 1778197110 | 6.67° C | 67% | 1012.1 hPa | 0 mm | - | 49 W/m² | - |
| 1778196808 | 7.22° C | 67% | 1012.3 hPa | 0 mm | - | 40 W/m² | - |
| 1778196506 | 7.22° C | 65% | 1012.3 hPa | 0 mm | - | 60 W/m² | - |
| 1778196202 | 7.78° C | 68% | 1012.4 hPa | 0 mm | - | 84 W/m² | - |
| 1778195899 | 7.78° C | 66% | 1012.5 hPa | 0 mm | - | 74 W/m² | - |
| 1778195596 | 8.33° C | 64% | 1012.6 hPa | 0 mm | - | 65 W/m² | - |
| 1778195293 | 8.33° C | 64% | 1012.5 hPa | 0 mm | - | 119 W/m² | - |
| 1778194990 | 7.78° C | 64% | 1012.3 hPa | 0 mm | - | 139 W/m² | - |
| 1778194689 | 7.78° C | 64% | 1012.6 hPa | 0 mm | - | 95 W/m² | - |
| 1778194386 | 7.78° C | 66% | 1012.6 hPa | 0 mm | - | 54 W/m² | - |
| 1778194082 | 8.33° C | 64% | 1012.7 hPa | 0 mm | - | 168 W/m² | - |
| 1778193779 | 7.78° C | 64% | 1012.9 hPa | 0 mm | - | 172 W/m² | - |
* Rain latest hour (hover to see other rain measurements)
** Current wind speed in m/s (hover to see current wind gust speed)